HG8GL-6 Weather Reports


time (UTC)temp
F
wind
direction
speed
knots
gust
knots
rain 1hr
in
rain 24hr
in
rain mn
in
humidity
%
barometer
mb
20260507052050 61 158 0.0 0.0 0.00 0.00 0.00 86 1013.0
20260507051020 61 158 0.0 0.0 0.00 0.00 0.00 86 1013.0
20260507045950 61 157 0.0 0.0 0.00 0.00 0.00 86 1013.0
20260507044920 61 158 0.0 0.0 0.00 0.00 0.00 86 1013.0
20260507043850 61 152 0.0 0.0 0.00 0.00 0.00 85 1013.0
20260507042820 61 158 0.0 0.0 0.00 0.00 0.00 85 1013.0
20260507041750 61 158 0.0 0.0 0.00 0.00 0.00 85 1013.0
20260507040750 61 158 0.0 0.0 0.00 0.00 0.00 84 1012.0
20260507035720 61 158 0.0 0.0 0.00 0.00 0.00 83 1012.0
20260507034650 61 158 0.0 0.0 0.00 0.00 0.00 83 1012.0
20260507033649 61 158 0.0 0.0 0.00 0.00 0.00 83 1012.0
20260507032649 61 158 0.0 0.0 0.00 0.00 0.00 82 1012.0
20260507031649 61 217 0.0 0.0 0.00 0.00 0.00 82 1012.0
20260507030619 61 229 0.0 0.0 0.00 0.00 0.00 82 1012.0
20260507025619 62 207 0.0 0.0 0.00 0.00 0.00 82 1012.0
20260507024549 62 241 0.0 0.0 0.00 0.00 0.00 83 1012.0
20260507023549 62 221 0.0 0.0 0.00 0.00 0.00 83 1012.0
20260507022549 62 181 0.0 0.0 0.00 0.00 0.00 83 1012.0
20260507021549 62 222 0.0 0.0 0.00 0.00 0.00 83 1012.0
20260507020449 62 220 0.0 0.0 0.00 0.00 0.00 83 1012.0
20260507015449 62 208 0.0 0.0 0.00 0.00 0.00 83 1012.0
20260507014449 62 235 0.0 0.0 0.00 0.00 0.00 83 1012.0
20260507013419 63 234 0.0 0.0 0.00 0.00 0.00 82 1012.0
20260507012349 63 258 0.0 0.0 0.00 0.00 0.00 81 1012.0
20260507011319 63 259 0.0 0.0 0.00 0.00 0.00 80 1012.0
20260507010319 63 288 0.0 0.0 0.00 0.00 0.00 79 1011.0
20260507005319 63 298 0.0 0.0 0.00 0.00 0.00 80 1011.0
20260507004249 64 274 0.0 0.0 0.00 0.00 0.00 80 1011.0
20260507003249 64 275 0.0 0.0 0.00 0.00 0.00 76 1012.0
20260507002219 64 300 0.0 0.0 0.00 0.00 0.00 75 1012.0
20260507001149 65 264 0.0 0.0 0.00 0.00 0.00 74 1012.0
20260507000149 65 275 0.0 0.0 0.00 0.00 0.00 72 1011.0
20260506235119 65 294 0.0 0.0 0.00 0.00 0.00 71 1012.0
20260506234119 65 281 0.0 0.0 0.00 0.00 0.00 71 1012.0
20260506233119 65 272 0.0 0.0 0.00 0.00 0.00 71 1012.0
20260506232049 65 281 0.0 0.0 0.00 0.00 0.00 71 1012.0
20260506231049 65 252 0.0 0.0 0.00 0.00 0.00 70 1012.0
20260506230049 65 259 0.0 0.0 0.00 0.00 0.00 69 1012.0
20260506225019 65 254 0.0 0.0 0.00 0.00 0.00 68 1012.0
20260506223949 65 251 0.0 0.0 0.00 0.00 0.00 67 1012.0
20260506222919 65 261 0.0 0.0 0.00 0.00 0.00 65 1012.0
20260506221919 65 246 0.0 0.0 0.00 0.00 0.00 63 1012.0
20260506220919 65 257 0.0 0.0 0.00 0.00 0.00 64 1012.0
20260506215849 66 245 0.0 0.0 0.00 0.00 0.00 63 1012.0
20260506214849 66 253 0.0 0.0 0.00 0.00 0.00 62 1011.0
20260506213819 66 289 0.0 0.0 0.00 0.00 0.00 60 1011.0
20260506212749 66 273 0.0 0.0 0.00 0.00 0.00 59 1011.0
20260506211749 67 269 0.0 0.0 0.00 0.00 0.00 57 1011.0
20260506210719 67 280 0.0 0.0 0.00 0.00 0.00 57 1011.0
20260506205649 67 280 0.0 0.0 0.00 0.00 0.00 56 1011.0
20260506204649 67 281 0.0 0.0 0.00 0.00 0.00 56 1010.0
20260506203649 67 277 0.0 0.0 0.00 0.00 0.00 55 1011.0
20260506202619 67 290 0.0 0.0 0.00 0.00 0.00 54 1011.0
20260506201549 66 260 0.0 0.0 0.00 0.00 0.00 56 1011.0
20260506200549 64 275 0.0 0.0 0.00 0.00 0.00 56 1010.0
20260506195549 64 165 0.0 0.0 0.00 0.00 0.00 52 1010.2
20260506194548 64 158 0.0 0.0 0.00 0.00 0.00 51 1011.0
20260506193549 64 135 0.0 0.0 0.00 0.00 0.00 50 1010.0
20260506192548 65 135 0.0 0.0 0.00 0.00 0.00 49 1010.0
20260506191548 65 158 0.0 0.0 0.00 0.00 0.00 49 1010.0
20260506190518 66 158 0.0 0.0 0.00 0.00 0.00 48 1011.0
20260506185518 66 131 0.0 0.0 0.00 0.00 0.00 48 1010.8
20260506184448 67 22 0.0 0.0 0.00 0.00 0.00 46 1010.0
20260506183448 67 22 0.0 0.0 0.00 0.00 0.00 45 1010.0
20260506182448 68 22 0.0 0.0 0.00 0.00 0.00 43 1010.0
20260506181418 69 22 0.0 0.0 0.00 0.00 0.00 42 1010.0
20260506180348 70 22 0.0 0.0 0.00 0.00 0.00 41 1010.0
20260506175348 71 22 0.0 0.0 0.00 0.00 0.00 39 1010.0
20260506174318 72 22 0.0 0.0 0.00 0.00 0.00 38 1010.0
20260506173248 74 22 0.0 0.0 0.00 0.00 0.00 37 1010.0
20260506172248 75 248 0.0 0.0 0.00 0.00 0.00 36 1010.0
20260506171218 75 248 0.0 0.0 0.00 0.00 0.00 35 1010.0
20260506170148 76 244 0.0 0.0 0.00 0.00 0.00 34 1010.0
20260506165118 76 228 0.0 0.0 0.00 0.00 0.00 34 1010.0
20260506164118 77 234 0.0 0.0 0.00 0.00 0.00 34 1010.0
20260506163118 77 225 0.0 0.0 0.00 0.00 0.00 34 1010.0
20260506162048 77 221 0.0 0.0 0.00 0.00 0.00 33 1010.0
20260506161048 78 186 0.0 0.0 0.00 0.00 0.00 33 1010.0
20260506160048 78 184 0.0 0.0 0.00 0.00 0.00 33 1010.0
20260506155018 78 192 0.0 0.0 0.00 0.00 0.00 33 1010.0
20260506154018 78 233 0.0 0.0 0.00 0.00 0.00 33 1010.0
20260506153018 78 178 0.0 0.0 0.00 0.00 0.00 33 1010.0
20260506151948 79 184 0.0 0.0 0.00 0.00 0.00 33 1009.0
20260506150918 79 196 0.0 0.0 0.00 0.00 0.00 32 1010.0
20260506145918 80 231 0.0 0.0 0.00 0.00 0.00 32 1010.0
20260506144848 80 214 0.0 0.0 0.00 0.00 0.00 32 1010.0
20260506143818 80 150 0.0 0.0 0.00 0.00 0.00 32 1010.0
20260506142748 81 212 0.0 0.0 0.00 0.00 0.00 32 1010.0
20260506141748 81 244 0.0 0.0 0.00 0.00 0.00 32 1010.0
20260506140718 81 228 0.0 0.0 0.00 0.00 0.00 32 1010.0
20260506135718 82 201 0.0 0.0 0.00 0.00 0.00 32 1010.0
20260506134648 81 249 0.0 0.0 0.00 0.00 0.00 33 1010.0
20260506133648 81 189 0.0 0.0 0.00 0.00 0.00 33 1010.0
20260506132618 80 235 0.0 0.0 0.00 0.00 0.00 33 1010.0
20260506131618 80 204 0.0 0.0 0.00 0.00 0.00 33 1010.0
20260506130618 79 148 0.0 0.0 0.00 0.00 0.00 33 1011.0
20260506125548 80 231 0.0 0.0 0.00 0.00 0.00 33 1011.2
20260506124548 80 203 0.0 0.0 0.00 0.00 0.00 34 1012.0
20260506123518 79 235 0.0 0.0 0.00 0.00 0.00 34 1012.0
20260506122448 79 181 0.0 0.0 0.00 0.00 0.00 33 1011.0
20260506121448 79 232 0.0 0.0 0.00 0.00 0.00 34 1011.0
20260506120417 79 162 0.0 0.0 0.00 0.00 0.00 34 1012.0
20260506115417 79 192 0.0 0.0 0.00 0.00 0.00 34 1012.0
20260506114417 80 221 0.0 0.0 0.00 0.00 0.00 35 1012.0
20260506113347 79 162 0.0 0.0 0.00 0.00 0.00 35 1012.0
20260506112317 79 188 0.0 0.0 0.00 0.00 0.00 35 1012.0
20260506111247 78 193 0.0 0.0 0.00 0.00 0.00 36 1012.0
20260506110247 78 187 0.0 0.0 0.00 0.00 0.00 37 1012.0
20260506105217 77 184 0.0 0.0 0.00 0.00 0.00 38 1013.0
20260506104147 76 217 0.0 0.0 0.00 0.00 0.00 38 1013.0
20260506103147 76 158 0.0 0.0 0.00 0.00 0.00 38 1012.0
20260506102117 75 173 0.0 0.0 0.00 0.00 0.00 39 1012.0
20260506101047 75 237 0.0 0.0 0.00 0.00 0.00 38 1012.0
20260506100047 76 198 0.0 0.0 0.00 0.00 0.00 38 1012.0
20260506095017 76 182 0.0 0.0 0.00 0.00 0.00 39 1012.0
20260506094017 77 162 0.0 0.0 0.00 0.00 0.00 39 1012.2
20260506092947 76 181 0.0 0.0 0.00 0.00 0.00 39 1013.0
20260506091917 76 189 0.0 0.0 0.00 0.00 0.00 40 1012.0
20260506090847 75 175 0.0 0.0 0.00 0.00 0.00 41 1012.0
20260506085817 75 154 0.0 0.0 0.00 0.00 0.00 42 1012.0
20260506084817 74 172 0.0 0.0 0.00 0.00 0.00 42 1012.0
20260506083817 73 176 0.0 0.0 0.00 0.00 0.00 42 1013.0
20260506082747 73 168 0.0 0.0 0.00 0.00 0.00 42 1013.0
20260506081717 73 205 0.0 0.0 0.00 0.00 0.00 43 1012.0
20260506080647 72 208 0.0 0.0 0.00 0.00 0.00 44 1013.0
20260506072517 71 227 0.0 0.0 0.00 0.00 0.00 46 1012.1
20260506071517 70 169 0.0 0.0 0.00 0.00 0.00 48 1013.0
20260506070517 69 205 0.0 0.0 0.00 0.00 0.00 48 1013.0
20260506062317 66 188 0.0 0.0 0.00 0.00 0.00 54 1012.0
20260506061247 65 176 0.0 0.0 0.00 0.00 0.00 55 1012.0
20260506060247 64 172 0.0 0.0 0.00 0.00 0.00 57 1013.0